Weather History for Troy, MI

Change the Weather History Date:

Sunday, December 9, 2012

  Actual Average (KDET) Record (KDET)
Temperature  
Mean Temperature 36 °F -  
Max Temperature 38 °F 38 °F 58 °F (1991)
Min Temperature 34 °F 28 °F 6 °F (1958)
Degree Days  
Heating Degree Days 29    
Moisture  
Dew Point 32 °F    
Average Humidity 86    
Maximum Humidity 95    
Minimum Humidity 76    
Precipitation  
Precipitation 0.00 in - - ()
Sea Level Pressure  
Sea Level Pressure 30.01 in    
Wind  
Wind Speed 7 mph (ENE)    
Max Wind Speed 16 mph    
Max Gust Speed 22 mph    
Visibility 8 miles    
Events Fog , Rain    
Averages and records for this station are not official NWS values.
T = Trace of Precipitation, MM = Missing Value Source: NWS Daily Summary

Daily Weather History Graph

Daily Weather History Graph

Search for Another Location

Airport:

Trip Planner

Search our weather history database for the weather conditions in past years. The results will help you decide how hot, cold, wet, or windy it might be!

Date:

Astronomy

Dec. 09, 2012 Rise Set
Actual Time 7:51 AM EST 4:59 PM EST
Civil Twilight 7:19 AM EST 5:31 PM EST
Nautical Twilight 6:43 AM EST 6:06 PM EST
Astronomical Twilight 6:09 AM EST 6:40 PM EST
Moon 3:18 AM EST (12/9) 2:08 PM EST (12/9)
Length of Visible Light 10h 12m
Length of Day
9h 08m
Waning Crescent, 19% of the Moon is Illuminated
Dec 9
Waning Crescent
Dec 13
New
Dec 20
First Quarter
Dec 28
Full
Jan 4
Last Quarter

Hourly Weather History & Observations

Time (EST) Temp. Windchill Dew Point Humidity Pressure Visibility Wind Dir Wind Speed Gust Speed Precip Events Conditions
12:15 AM 36.9 °F 33.1 °F 32.0 °F 83% 30.20 in 10.0 mi NNE 4.6 mph - N/A   Overcast
12:34 AM 36.7 °F 34.1 °F 32.0 °F 83% 30.20 in 10.0 mi NNE 3.5 mph - N/A   Mostly Cloudy
12:55 AM 36.5 °F 31.8 °F 32.0 °F 84% 30.20 in 10.0 mi NE 5.8 mph - N/A   Mostly Cloudy
1:15 AM 36.5 °F 31.8 °F 31.8 °F 83% 30.20 in 10.0 mi NE 5.8 mph - N/A   Scattered Clouds
1:34 AM 36.1 °F 31.4 °F 31.1 °F 82% 30.20 in 10.0 mi NE 5.8 mph - N/A   Scattered Clouds
1:55 AM 36.1 °F 32.3 °F 30.9 °F 81% 30.20 in 10.0 mi ENE 4.6 mph - N/A   Mostly Cloudy
2:14 AM 36.1 °F 29.9 °F 30.6 °F 80% 30.20 in 10.0 mi ENE 8.1 mph - N/A   Mostly Cloudy
2:34 AM 36.0 °F 29.0 °F 30.6 °F 81% 30.20 in 10.0 mi ENE 9.2 mph - N/A   Overcast
2:54 AM 36.0 °F 30.3 °F 30.2 °F 80% 30.21 in 10.0 mi ENE 6.9 mph - N/A   Overcast
3:14 AM 36.0 °F 30.3 °F 30.2 °F 80% 30.20 in 10.0 mi NE 6.9 mph - N/A   Overcast
3:35 AM 35.8 °F 30.1 °F 30.2 °F 80% 30.20 in 10.0 mi NE 6.9 mph - N/A   Mostly Cloudy
3:54 AM 35.6 °F 29.2 °F 30.2 °F 81% 30.18 in 10.0 mi ENE 8.1 mph - N/A   Mostly Cloudy
4:14 AM 35.6 °F 29.9 °F 30.4 °F 81% 30.19 in 10.0 mi ENE 6.9 mph - N/A   Mostly Cloudy
4:35 AM 36.0 °F 31.1 °F 30.7 °F 81% 30.19 in 10.0 mi ENE 5.8 mph - N/A   Overcast
4:54 AM 35.8 °F 31.9 °F 30.9 °F 82% 30.19 in 10.0 mi ENE 4.6 mph - N/A   Overcast
5:15 AM 36.0 °F 32.1 °F 31.1 °F 82% 30.19 in 10.0 mi ENE 4.6 mph - N/A   Overcast
5:35 AM 36.5 °F 33.9 °F 31.6 °F 83% 30.20 in 10.0 mi ENE 3.5 mph - N/A   Overcast
5:54 AM 36.7 °F 32.0 °F 31.6 °F 82% 30.20 in 10.0 mi ENE 5.8 mph - N/A   Overcast
6:15 AM 36.9 °F 30.7 °F 31.5 °F 81% 30.19 in 10.0 mi East 8.1 mph - N/A   Overcast
6:35 AM 37.4 °F 31.4 °F 30.7 °F 77% 30.19 in 10.0 mi East 8.1 mph 16.1 mph N/A   Overcast
6:54 AM 37.6 °F 32.3 °F 30.9 °F 77% 30.20 in 10.0 mi East 6.9 mph - N/A   Overcast
7:15 AM 37.6 °F 28.4 °F 30.6 °F 76% 30.19 in 10.0 mi East 16.1 mph - N/A   Overcast
7:35 AM 37.2 °F 30.6 °F 30.2 °F 76% 30.19 in 10.0 mi East 9.2 mph 16.1 mph N/A   Overcast
7:54 AM 36.9 °F 29.6 °F 30.2 °F 77% 30.19 in 10.0 mi East 10.4 mph - N/A   Overcast
8:15 AM 36.7 °F 30.5 °F 30.0 °F 77% 30.19 in 10.0 mi East 8.1 mph - N/A   Overcast
8:34 AM 36.5 °F 30.3 °F 30.2 °F 78% 30.18 in 10.0 mi ENE 8.1 mph - N/A   Overcast
8:55 AM 36.1 °F 29.3 °F 29.8 °F 78% 30.16 in 10.0 mi ENE 9.2 mph - N/A   Overcast
9:15 AM 36.5 °F 30.3 °F 30.2 °F 78% 30.15 in 10.0 mi East 8.1 mph - N/A   Mostly Cloudy
9:34 AM 36.7 °F 28.9 °F 30.7 °F 79% 30.15 in 10.0 mi East 11.5 mph - N/A   Overcast
9:55 AM 36.7 °F 29.4 °F 30.9 °F 80% 30.13 in 10.0 mi East 10.4 mph 16.1 mph N/A   Overcast
10:14 AM 36.9 °F 29.6 °F 31.1 °F 80% 30.13 in 10.0 mi ENE 10.4 mph - N/A   Overcast
10:34 AM 37.0 °F 29.8 °F 31.6 °F 81% 30.12 in 10.0 mi East 10.4 mph - N/A   Overcast
10:55 AM 37.4 °F 30.8 °F 32.0 °F 81% 30.11 in 10.0 mi East 9.2 mph - N/A   Overcast
11:14 AM 37.6 °F 30.5 °F 32.2 °F 81% 30.10 in 10.0 mi East 10.4 mph - N/A   Overcast
11:35 AM 37.9 °F 31.5 °F 32.9 °F 82% 30.09 in 10.0 mi East 9.2 mph 16.1 mph N/A   Overcast
11:54 AM 38.3 °F 30.5 °F 33.1 °F 81% 30.07 in 10.0 mi ENE 12.7 mph - N/A   Overcast
12:15 PM 38.5 °F 31.1 °F 33.4 °F 82% 30.05 in 10.0 mi East 11.5 mph - N/A   Overcast
12:35 PM 38.3 °F 31.9 °F 33.8 °F 84% 30.04 in 10.0 mi ENE 9.2 mph - N/A   Overcast
12:54 PM 38.1 °F 29.5 °F 33.4 °F 83% 30.03 in 10.0 mi ENE 15.0 mph 19.6 mph N/A   Overcast
1:15 PM 37.4 °F 29.3 °F 33.8 °F 87% 30.02 in 5.0 mi East 12.7 mph - N/A Rain Light Rain
1:34 PM 37.2 °F 28.7 °F 33.8 °F 87% 30.00 in 3.0 mi East 13.8 mph 17.3 mph N/A Rain Light Rain
1:55 PM 36.5 °F 27.8 °F 33.8 °F 90% 29.99 in 5.0 mi ENE 13.8 mph 19.6 mph N/A Rain Rain
2:15 PM 36.0 °F 26.7 °F 33.3 °F 90% 29.96 in 7.0 mi ENE 15.0 mph 18.4 mph N/A Rain Rain
2:34 PM 35.2 °F 25.8 °F 32.4 °F 89% 29.94 in 7.0 mi ENE 15.0 mph 21.9 mph N/A   Light Drizzle
2:55 PM 34.9 °F 25.7 °F 32.0 °F 89% 29.93 in 10.0 mi ENE 13.8 mph 20.7 mph N/A   Overcast
3:14 PM 34.7 °F 25.5 °F 32.0 °F 90% 29.92 in 10.0 mi ENE 13.8 mph 17.3 mph N/A   Light Drizzle
3:35 PM 34.7 °F 25.9 °F 31.8 °F 89% 29.90 in 10.0 mi ENE 12.7 mph - N/A   Overcast
3:54 PM 34.5 °F 25.3 °F 31.6 °F 89% 29.89 in 10.0 mi ENE 13.8 mph 17.3 mph N/A   Overcast
4:14 PM 34.7 °F 27.5 °F 31.3 °F 87% 29.88 in 10.0 mi ENE 9.2 mph - N/A   Overcast
4:35 PM 34.7 °F 25.9 °F 31.6 °F 89% 29.87 in 10.0 mi ENE 12.7 mph - N/A   Overcast
4:54 PM 34.7 °F 26.4 °F 31.5 °F 88% 29.87 in 10.0 mi East 11.5 mph - N/A   Overcast
5:14 PM 34.7 °F 28.1 °F 31.8 °F 89% 29.87 in 5.0 mi ENE 8.1 mph - N/A Rain Light Rain
5:35 PM 34.7 °F 30.6 °F 32.0 °F 90% 29.87 in 4.0 mi NE 4.6 mph - N/A   Overcast
5:54 PM 34.7 °F 28.8 °F 32.2 °F 91% 29.85 in 5.0 mi NE 6.9 mph - N/A   Light Drizzle
6:14 PM 34.7 °F 27.5 °F 32.4 °F 91% 29.84 in 7.0 mi ENE 9.2 mph - N/A   Overcast
6:35 PM 34.3 °F 28.4 °F 32.2 °F 92% 29.81 in 4.0 mi ENE 6.9 mph - N/A   Overcast
6:54 PM 34.3 °F 29.2 °F 32.4 °F 92% 29.80 in 3.0 mi ENE 5.8 mph - N/A   Overcast
7:15 PM 34.7 °F 29.6 °F 32.9 °F 93% 29.80 in 3.0 mi NE 5.8 mph - N/A   Overcast
7:35 PM 34.7 °F 30.6 °F 32.9 °F 93% 29.79 in 2.5 mi NE 4.6 mph - N/A   Overcast
7:54 PM 34.7 °F 31.8 °F 32.9 °F 93% 29.77 in 2.5 mi NNE 3.5 mph - N/A   Overcast
8:15 PM 34.7 °F - 33.1 °F 94% 29.77 in 2.0 mi Calm Calm - N/A   Overcast
8:35 PM 34.9 °F 32.0 °F 33.3 °F 94% 29.76 in 1.8 mi NNE 3.5 mph - N/A   Overcast
8:54 PM 34.9 °F 30.8 °F 33.4 °F 94% 29.73 in 1.8 mi ENE 4.6 mph - N/A   Overcast
9:15 PM 35.2 °F - 33.8 °F 94% 29.73 in 1.8 mi Calm Calm - N/A   Overcast
9:34 PM 35.4 °F 32.6 °F 33.8 °F 94% 29.72 in 2.0 mi NNE 3.5 mph - N/A   Overcast
9:55 PM 35.4 °F - 34.0 °F 94% 29.71 in 2.0 mi Calm Calm - N/A   Overcast
10:14 PM 35.6 °F - 34.2 °F 94% 29.70 in 1.5 mi Calm Calm - N/A   Overcast
10:35 PM 35.8 °F - 34.5 °F 95% 29.70 in 1.2 mi Calm Calm - N/A   Overcast
10:55 PM 36.5 °F - 35.2 °F 95% 29.69 in 1.0 mi Calm Calm - N/A   Overcast
11:14 PM 36.5 °F - 35.1 °F 95% 29.68 in 0.8 mi Calm Calm - N/A   Overcast
11:35 PM 36.5 °F - 35.2 °F 95% 29.67 in 0.5 mi Calm Calm - N/A Rain Light Rain
11:54 PM 37.6 °F - 36.1 °F 95% 29.67 in 0.5 mi Calm Calm - N/A Fog Fog